www.pogodaiklimat.ru

Погода и климат >> Архив погоды >> Россия >> Калмыкия >> Кетченеры


ПОГОДА в Кетченерах

  • Прогноз погоды в Кетченерах
  • Монитор погоды в Кетченерах
  • Климат города

АРХИВ ПОГОДЫ в Кетченерах

Время (UTC), дата Ветер
(напр.,м/с)
 
Видим.   Явления Облачность Т
(С)
Тd
(С)
f
(%)
Тe
(С)
Тes
(С)
Комфортность P
(гПа)
Po
(гПа)
Тmin
(С)
Tmax
(С)
R
(мм)
S
(см)
03 16.03 штиль 0 20 км 10/10 600 м
[Cb calv]
+3.3 -3.0 63 +3 +3 1015.0 1007.8 +3.2
09 16.03 ЮВ 2 20 км 10/10 600 м
[Cb calv]
+7.2 -2.1 52 +6 +6 1013.8 1006.7
15 16.03 штиль 0 10 км слабый ливневой дождь 10/10 300 м
[Cb calv]
+5.8 +2.1 77 +5 +5 1012.7 1005.6 +8.4 0.0
21 16.03 штиль 0 2000 м дымка 10/10 600 м
[Sc]
+3.0 +2.7 98 +2 +2 1012.9 1005.6
03 17.03 штиль 0 2000 м дымка ясно +0.8 +0.7 99 -1 -1 1013.7 1006.4 +0.2
09 17.03 З 3 20 км 8/4 600 м
[Cb calv Ac trans Ci fib]
+10.5 +1.5 54 +9 +12 1014.6 1007.6
15 17.03 штиль 0 20 км 8/3 600 м
[Cb calv Ac trans]
+9.9 +2.2 59 +10 +10 1015.0 1007.9 +12.2
21 17.03 штиль 0 2000 м дымка ясно +1.0 +0.6 97 -0 -0 1015.4 1008.1
03 18.03 штиль 0 2000 м дымка 6/0
[Ac trans Ci fib]
-1.8 -2.0 99 -3 -3 1015.2 1007.9 -2.2
09 18.03 Ю 2 20 км 8/4 1000 м
[Cu hum Ac trans Ci fib]
+12.2 +2.1 50 +12 +16 1014.1 1007.1
15 18.03 ЮВ 2 20 км 8/0
[Ac trans Ci fib]
+10.3 +1.4 54 +9 +9 1013.0 1006.0 +13.8
21 18.03 Ю 3 20 км 4/3 600 м
[Cb calv Ac trans]
+4.5 +2.2 85 +1 +1 1013.8 1006.6
03 19.03 Ю 2 2000 м дымка 10/10 600 м
[Cb calv]
+2.5 +2.4 99 -1 -1 1013.3 1006.1 +1.9
09 19.03 ЮВ 3 20 км 10/10 600 м
[Cb calv]
+6.8 +3.1 77 +4 +4 1012.8 1005.7
15 19.03 ЮВ 3 20 км 10/10 600 м
[Sc]
+6.6 +2.2 73 +4 +4 1011.6 1004.5 +9.4
21 19.03 ЮВ 1 2000 м дымка ясно +2.8 +2.3 97 +1 +1 1010.5 1003.2
03 20.03 штиль 0 2000 м дымка 10/10 600 м
[Sc]
+4.1 +3.6 97 +3 +3 1009.2 1002.1 +1.9
09 20.03 ЮВ 2 20 км 10/10 600 м
[Cb calv]
+6.7 +3.3 79 +5 +5 1008.3 1001.2
15 20.03 штиль 0 20 км 10/10 600 м
[Cb calv]
+9.1 +3.3 67 +9 +9 1008.8 1001.8 +9.7
21 20.03 СЗ 1 20 км 10/10 600 м
[Sc]
+7.5 +3.4 75 +7 +7 1009.2 1002.1
03 21.03 СЗ 3 4000 м дымка ясно +4.9 +3.9 93 +1 +1 1010.6 1003.4 +4.9
09 21.03 СЗ 3 20 км 10/10 600 м
[Cb calv]
+6.1 +3.3 82 +3 +3 1010.9 1003.8
21 21.03 С 2 2000 м слабый ливневой снег 10/10 300 м
[Cb calv]
-0.3 -0.6 98 -4 -4 1011.6 1004.3
03 22.03 С 3 2000 м слабый ливневой снег 10/10 300 м
[Cb calv]
-0.5 -1.0 96 -5 -5 1012.4 1005.0 -0.8 4 1
09 22.03 СВ 4 20 км слабый ливневой снег 10/10 600 м
[Cb calv]
-0.8 -2.5 88 -6 -6 1014.3 1007.0
15 22.03 С 3 2000 м дымка {ливн. осадки} 10/10 600 м
[Cb calv]
-1.3 -1.6 98 -6 -6 1017.4 1010.0 -0.5 1
21 22.03 С 2 2000 м дымка {ливн. осадки} 10/10 600 м
[Sc]
-1.1 -1.1 100 -5 -5 1019.6 1012.2

 

Местоположение метеостанции Кетченеры (Калмыкия, Россия): широта 47.32 долгота 44.57 высота над уровнем моря 58 м.

В архиве по умолчанию представлена погода в Кетченерах за последнюю неделю. Архивные данные за месяц целиком и за предыдущие месяцы, начиная с января 2011 года, Вы можете получить, выбрав интересующий диапазон дат из раскрывающегося списка и нажав кнопку "Ввод!".

Внимание! Время в таблицах - всемирное. Для получения местного времени необходимо прибавить поправку, которая в Кетченерах равна 3 ч.

Смотрите также архив погоды в соседних городах и на ближайших метеорологических станциях:

Погода в Малых Дербетах (Калмыкия, Россия) (69 км)
Погода в Элисте (Калмыкия, Россия) (107 км)
Погода в Ремонтном (Ростовская область, Россия) (108 км)
Погода в Котельниково (Волгоградская область, Россия) (112 км)
Погода в Юсте (Калмыкия, Россия) (134 км)
Погода в Яшкуле (Калмыкия, Россия) (140 км)
Погода в Черный Яр (Астраханская область, Россия) (143 км)
Погода в Волгограде город (Волгоградская область, Россия) (150 км)
Погода в Утте (Калмыкия, Россия) (153 км)
Погода в Нижнем Чире (Волгоградская область, Россия) (156 км)

Пояснения к столбцам:

Ветер - указаны скорость ветра в м/с - средняя за 10 мин, порывы в срок и между сроками (в фигурных скобках) и направление, откуда дует ветер: С - северный, СВ - северо-восточный, В - восточный, ЮВ - юго-восточный, Ю - южный, ЮЗ - юго-западный, З - западный, СЗ - северо-западный.
Видимость - горизонтальная дальность видимости в метрах или километрах. При видимости от 1 до 10 км при отсутствии осадков обычно наблюдается дымка, при ухудшении видимости до 1 км и менее - туман. В сухую погоду видимость может ухудшаться дымом, пылью или мглою.
Явления - указаны атмосферные явления, наблюдавшиеся в срок или в последний час перед сроком; фигурными скобками обозначены явления, наблюдавшиеся между сроками (за 1-3 часа до срока); квадратными скобками обозначены град или гололедные отложения с указанием их диаметра в мм.
Облачность - указаны через наклонную черту общая и нижняя облачность в баллах и высота нижней границы облаков в метрах; квадратными скобками обозначены формы облаков: Ci - перистые, Cs - перисто-слоистые, Cc - перисто-кучевые, Ac - высококучевые, As - высокослоистые, Sc - слоисто-кучевые, Ns - слоисто-дождевые, Cu - кучевые, Cb - кучево-дождевые. Подробнее классификацию облаков см. в Атласе облаков (PDF).
T - Температура воздуха - температура, измеренная на высоте 2 м над землей.
Td - Температура точки росы - температура, при понижении до которой содержащийся в воздухе водяной пар достигнет насыщения.
f - Относительная влажность воздуха - влажноcть воздуха, измеренная на высоте 2 м над землей.
Te - Эффективная температура - температура, которую ощущает одетый по сезону человек в тени. Характеристика душности погоды. При расчете учитывается влияние влажности воздуха и скорости ветра на теплоощущения человека.
Tes - Эффективная температура на солнце - температура, которую ощущает человек, с поправкой на солнечный нагрев. Характеристика знойности погоды. Зависит от высоты солнца над горизонтом, облачности и скорости ветра. Ночью, в пасмурную погоду, а также при ветре 12 м/с и более поправка равна нулю.
P - Атмосферное давление - приведенное к уровню моря атмосферное давление.
Po - Атмосферное давление - измеренное на уровне метеостанции атмосферное давление.
Tmin - Минимальная температура - минимум температуры воздуха на высоте 2 м над землей.
Tmax - Максимальная температура - максимум температуры воздуха на высоте 2 м над землей.
R - Количество осадков - Количество выпавших осадков, мм. При наведении курсора мыши на число - период времени, за который выпало указанное количество осадков.
S - Снежный покров - Высота снежного покрова, см. При наведении курсора мыши на число - состояние снежного покрова и степень покрытия местности в баллах.